Total_Precipitation_Accumulation
0.00 0.00 0.00 0.00 0.00 0.00 0.00 0.00 0.02 0.11 0.31 0.10 0.08 0.10 0.09 0.07 0.02 0.02 0.02 0.02 0.16 0.19 0.08 0.00 0.00 0.00 0.00 0.00 0.00 0.00 0.00 0.00 0.00 0.00 0.00 0.00 0.00 0.00 0.00 0.00 0.00 0.00 0.00
0.00 0.00 0.00 0.00 0.00 0.00 0.00 0.01 0.03 0.05 0.28 0.61 0.20 0.19 0.12 0.10 0.08 0.05 0.01 0.01 0.03 0.11 0.17 0.02 0.00 0.00 0.00 0.00 0.00 0.00 0.00 0.00 0.00 0.00 0.00 0.00 0.00 0.00 0.00 0.00 0.00 0.00 0.00
0.00 0.00 0.01 0.00 0.01 0.01 0.02 0.04 0.10 0.10 0.10 0.73 0.69 0.27 0.27 0.28 0.23 0.22 0.12 0.04 0.04 0.04 0.05 0.05 0.01 0.00 0.01 0.02 0.01 0.05 0.03 0.00 0.00 0.00 0.00 0.00 0.00 0.00 0.00 0.00 0.00 0.00 0.00
0.00 0.01 0.01 0.01 0.01 0.01 0.02 0.02 0.08 0.22 0.22 0.32 0.86 0.66 0.33 0.31 0.24 0.24 0.25 0.23 0.18 0.15 0.10 0.09 0.06 0.02 0.05 0.11 0.15 0.23 0.26 0.18 0.10 0.08 0.03 0.03 0.05 0.04 0.01 0.00 0.00 0.00 0.00
0.02 0.04 0.05 0.08 0.01 0.00 0.00 0.03 0.07 0.16 0.23 0.22 0.52 1.07 0.76 0.44 0.21 0.15 0.24 0.30 0.33 0.28 0.30 0.28 0.21 0.16 0.16 0.16 0.24 0.29 0.32 0.30 0.26 0.22 0.17 0.16 0.13 0.10 0.05 0.02 0.01 0.00 0.00
0.04 0.13 0.18 0.16 0.11 0.02 0.05 0.02 0.11 0.18 0.17 0.25 0.29 0.63 0.92 0.56 0.35 0.22 0.14 0.14 0.20 0.31 0.39 0.38 0.34 0.32 0.31 0.34 0.31 0.28 0.20 0.16 0.15 0.12 0.12 0.10 0.05 0.05 0.04 0.00 0.00 0.00 0.00
0.30 0.50 0.33 0.27 0.23 0.13 0.32 0.30 0.27 0.40 0.33 0.40 0.38 0.40 0.53 0.52 0.45 0.33 0.25 0.12 0.11 0.12 0.24 0.37 0.39 0.32 0.33 0.32 0.26 0.22 0.13 0.09 0.07 0.08 0.08 0.06 0.03 0.03 0.10 0.09 0.03 0.00 0.00
0.79 0.96 0.77 0.62 0.66 0.46 0.52 0.52 0.45 0.70 0.79 0.72 0.56 0.59 0.52 0.37 0.32 0.28 0.26 0.23 0.14 0.13 0.10 0.25 0.35 0.33 0.31 0.31 0.24 0.16 0.11 0.07 0.05 0.04 0.04 0.05 0.03 0.02 0.01 0.06 0.12 0.10 0.03
0.57 0.61 0.48 0.31 0.25 0.29 0.35 0.33 0.43 0.66 0.68 0.55 0.44 0.39 0.50 0.33 0.31 0.29 0.27 0.22 0.18 0.14 0.12 0.11 0.12 0.16 0.19 0.26 0.27 0.26 0.19 0.16 0.13 0.09 0.06 0.05 0.03 0.03 0.02 0.01 0.01 0.03 0.04
0.38 0.24 0.15 0.09 0.03 0.03 0.03 0.06 0.10 0.12 0.19 0.21 0.14 0.24 0.20 0.22 0.19 0.18 0.18 0.16 0.16 0.15 0.13 0.10 0.08 0.08 0.11 0.12 0.16 0.19 0.22 0.24 0.23 0.17 0.13 0.11 0.08 0.07 0.06 0.04 0.03 0.02 0.03
0.08 0.04 0.01 0.00 0.00 0.00 0.00 0.00 0.00 0.00 0.00 0.00 0.00 0.03 0.10 0.09 0.07 0.12 0.15 0.13 0.10 0.10 0.09 0.10 0.10 0.12 0.14 0.15 0.15 0.12 0.08 0.08 0.09 0.16 0.22 0.22 0.18 0.14 0.12 0.10 0.04 0.04 0.05
0.00 0.00 0.00 0.00 0.00 0.00 0.00 0.00 0.00 0.00 0.00 0.00 0.00 0.00 0.00 0.00 0.00 0.00 0.00 0.01 0.01 0.05 0.07 0.10 0.09 0.07 0.08 0.10 0.14 0.16 0.17 0.16 0.10 0.07 0.10 0.12 0.15 0.17 0.17 0.10 0.05 0.03 0.03
0.00 0.00 0.00 0.00 0.00 0.00 0.00 0.00 0.00 0.00 0.00 0.00 0.00 0.00 0.00 0.00 0.00 0.00 0.00 0.00 0.00 0.00 0.00 0.01 0.01 0.01 0.01 0.01 0.02 0.04 0.05 0.07 0.06 0.06 0.05 0.06 0.08 0.11 0.12 0.09 0.06 0.09 0.07
0.00 0.00 0.00 0.00 0.00 0.00 0.00 0.00 0.00 0.00 0.00 0.00 0.00 0.00 0.00 0.00 0.00 0.00 0.00 0.00 0.00 0.00 0.00 0.00 0.00 0.00 0.00 0.00 0.01 0.02 0.03 0.03 0.04 0.05 0.05 0.04 0.05 0.05 0.07 0.14 0.19 0.14 0.03
0.00 0.00 0.00 0.00 0.00 0.00 0.00 0.00 0.00 0.00 0.00 0.00 0.00 0.00 0.00 0.00 0.00 0.00 0.00 0.00 0.00 0.00 0.00 0.00 0.00 0.00 0.00 0.00 0.00 0.01 0.02 0.03 0.05 0.05 0.04 0.02 0.04 0.05 0.04 0.03 0.06 0.10 0.06
0.00 0.00 0.00 0.00 0.00 0.00 0.00 0.00 0.00 0.00 0.00 0.00 0.00 0.00 0.00 0.00 0.00 0.00 0.00 0.00 0.00 0.00 0.00 0.00 0.00 0.00 0.00 0.01 0.01 0.01 0.00 0.01 0.03 0.04 0.04 0.04 0.06 0.04 0.03 0.01 0.01 0.02 0.00
0.00 0.00 0.00 0.00 0.00 0.00 0.00 0.00 0.00 0.00 0.00 0.00 0.00 0.00 0.00 0.00 0.00 0.00 0.00 0.00 0.00 0.00 0.00 0.00 0.00 0.00 0.00 0.01 0.00 0.01 0.01 0.01 0.04 0.05 0.05 0.06 0.06 0.08 0.06 0.05 0.03 0.00 0.00
0.00 0.00 0.00 0.00 0.00 0.00 0.00 0.00 0.00 0.00 0.00 0.00 0.00 0.00 0.00 0.00 0.00 0.00 0.00 0.00 0.00 0.00 0.00 0.00 0.00 0.00 0.00 0.00 0.00 0.03 0.01 0.03 0.08 0.14 0.13 0.12 0.10 0.09 0.07 0.05 0.03 0.01 0.00
0.00 0.00 0.00 0.00 0.00 0.00 0.00 0.00 0.00 0.00 0.00 0.00 0.00 0.00 0.00 0.00 0.00 0.00 0.00 0.00 0.00 0.00 0.00 0.00 0.00 0.00 0.00 0.00 0.00 0.01 0.01 0.04 0.05 0.09 0.12 0.14 0.16 0.22 0.22 0.13 0.08 0.05 0.04
0.00 0.00 0.00 0.00 0.00 0.00 0.00 0.00 0.00 0.00 0.00 0.00 0.00 0.00 0.00 0.00 0.00 0.00 0.00 0.00 0.00 0.00 0.00 0.00 0.00 0.00 0.00 0.00 0.00 0.00 0.00 0.03 0.03 0.05 0.06 0.10 0.08 0.12 0.19 0.23 0.21 0.14 0.09
0.00 0.00 0.00 0.00 0.00 0.00 0.00 0.00 0.00 0.00 0.00 0.00 0.00 0.00 0.00 0.00 0.00 0.00 0.00 0.00 0.00 0.00 0.00 0.00 0.00 0.00 0.00 0.00 0.00 0.00 0.00 0.01 0.02 0.02 0.03 0.06 0.09 0.09 0.12 0.16 0.18 0.15 0.15
0.00 0.00 0.00 0.00 0.00 0.00 0.00 0.00 0.00 0.00 0.00 0.00 0.00 0.00 0.00 0.00 0.00 0.00 0.00 0.00 0.00 0.00 0.00 0.00 0.00 0.00 0.00 0.00 0.00 0.00 0.00 0.01 0.01 0.01 0.02 0.04 0.12 0.13 0.13 0.10 0.13 0.19 0.16
0.00 0.00 0.00 0.00 0.00 0.00 0.00 0.00 0.00 0.00 0.00 0.00 0.00 0.00 0.00 0.00 0.00 0.00 0.00 0.00 0.00 0.00 0.00 0.01 0.01 0.01 0.01 0.01 0.00 0.00 0.00 0.01 0.01 0.01 0.02 0.06 0.14 0.13 0.14 0.16 0.16 0.12 0.11
0.00 0.00 0.00 0.00 0.00 0.00 0.00 0.00 0.00 0.00 0.00 0.00 0.00 0.00 0.00 0.00 0.00 0.00 0.00 0.00 0.00 0.00 0.00 0.01 0.01 0.02 0.01 0.01 0.01 0.01 0.01 0.01 0.02 0.03 0.04 0.07 0.14 0.20 0.19 0.17 0.18 0.18 0.07
0.00 0.00 0.00 0.00 0.00 0.00 0.00 0.00 0.00 0.00 0.00 0.00 0.00 0.00 0.00 0.00 0.00 0.00 0.00 0.00 0.00 0.01 0.02 0.02 0.02 0.03 0.03 0.02 0.03 0.04 0.05 0.03 0.03 0.05 0.04 0.15 0.16 0.13 0.15 0.16 0.15 0.11 0.09
0.00 0.00 0.00 0.00 0.00 0.00 0.00 0.00 0.00 0.00 0.00 0.00 0.00 0.00 0.00 0.00 0.00 0.00 0.00 0.01 0.02 0.02 0.02 0.03 0.05 0.04 0.05 0.05 0.04 0.05 0.07 0.08 0.14 0.15 0.10 0.09 0.09 0.11 0.08 0.05 0.09 0.12 0.10